User: anonymous   Login
Location: Unspecified
(0.0000°N, 0.0000°E)
Time: 05:29:15
(UTC+00:00)
Language:

USA 186 - Orbit

View from above orbital plane
View from above orbital plane
View from above satellite
View from above satellite

Ground track
Ground track

The orbit data is extracted from the following two-line orbital elements,

1 28888U 05042A   18229.11038909 0.00013500  00000-0  60248-4 0    04
2 28888  96.8753 266.6000 0140566 306.8469  53.1530 15.70738564    05
Epoch (UTC): 17 August 2018 02:38:57
Eccentricity: 0.0140566
inclination: 96.8753°
perigee height: 262 km
apogee height: 451 km
right ascension of ascending node: 266.6000°
argument of perigee: 306.8469°
revolutions per day: 15.70738564
mean anomaly at epoch: 53.1530°
orbit number at epoch: 0

The dashed part of the orbit path shows where the satellite is in the earth's shadow,  

DLR